Lid_Strength_Index
3 2 2 2 2 3 2 3 8 1 -0 7 7 9 6 6 5 5 5 6 6 7 7 8 8 8 7 5 5 7 6 8 11 9 7 6 7 8 8 12 12 11 13 11
2 2 2 2 3 3 2 5 5 1 2 10 10 6 6 5 6 6 6 6 6 5 7 9 7 7 6 5 6 7 6 8 12 11 9 7 8 7 7 8 9 11 15 11
2 2 2 2 3 2 1 5 9 6 5 4 7 8 7 7 5 5 5 6 5 6 7 6 8 8 7 6 6 7 6 8 10 13 10 8 10 8 7 8 11 11 10 9
3 2 2 3 3 2 1 4 6 5 10 8 6 6 6 7 8 5 5 6 6 7 9 8 9 7 7 6 7 6 6 10 8 8 8 8 8 8 8 9 9 11 9 9
2 2 2 4 3 2 3 6 6 5 6 6 7 7 7 7 7 6 7 7 6 6 8 8 9 7 7 8 6 7 6 10 9 11 9 9 9 8 8 8 8 8 8 8
1 2 4 4 4 1 3 3 2 4 7 7 7 7 7 6 6 6 5 5 6 7 7 5 5 5 5 5 7 8 8 9 11 12 10 10 14 10 8 8 7 7 10 7
1 3 4 3 3 1 1 2 3 6 9 7 7 6 6 6 6 7 6 5 6 6 3 3 4 5 5 6 6 6 9 9 10 12 13 18 9 7 7 7 7 6 6 6
2 4 5 3 3 3 1 1 3 5 12 6 6 6 6 5 5 6 6 6 4 3 4 8 10 10 10 8 7 7 6 8 12 16 12 10 9 8 9 9 9 6 7 6
3 4 4 4 4 3 1 1 0 3 7 7 4 5 5 7 7 7 7 4 3 4 6 9 12 13 10 11 10 6 7 7 10 12 17 19 9 7 6 6 10 6 6 6
4 4 3 3 3 3 1 1 -0 2 5 4 4 6 6 4 5 7 7 6 6 4 9 14 12 12 9 12 13 14 12 12 14 13 15 11 6 7 5 11 10 5 5 5
3 3 3 4 3 3 2 1 -0 2 5 4 3 3 4 4 5 8 6 7 6 7 11 12 11 13 9 10 8 11 12 13 15 13 16 17 6 6 9 7 4 5 4 4
4 3 3 3 4 3 3 2 -1 -0 3 4 2 2 2 2 3 4 5 6 6 6 8 9 9 13 12 11 12 7 11 9 10 9 9 5 5 5 4 4 4 4 4 4
4 4 4 4 3 3 3 1 -0 1 4 4 4 4 2 0 1 1 5 4 4 5 4 7 8 13 8 14 11 9 7 6 8 8 6 6 5 4 4 4 4 3 3 3
4 4 4 4 3 3 2 1 -0 1 4 10 6 1 3 0 1 1 2 3 2 3 4 7 9 12 6 9 8 8 7 6 8 8 6 5 5 4 4 4 3 3 3 3
4 4 4 3 3 2 0 -1 -0 -0 3 9 7 3 2 1 1 2 2 3 3 5 7 9 10 6 7 7 7 8 5 7 9 9 6 6 6 4 4 4 4 4 4 4
4 4 3 3 2 2 1 4 0 0 1 5 10 3 4 2 2 3 3 3 3 3 6 8 5 5 6 12 10 7 6 5 5 7 4 5 4 5 5 6 5 5 6 6
4 4 3 3 3 0 3 4 2 3 -1 5 9 8 4 3 3 3 3 3 4 4 6 7 6 6 6 10 11 7 6 5 5 4 4 6 6 7 6 7 8 8 9 10
4 3 3 3 3 4 2 3 5 3 2 3 9 10 7 3 6 7 4 6 4 6 7 7 8 6 7 11 9 8 7 5 6 6 5 6 6 6 7 8 9 10 11 11
4 3 3 0 1 3 2 6 4 -0 3 7 10 11 13 5 7 6 6 4 10 6 9 8 7 9 12 10 9 8 8 8 8 7 7 7 8 9 10 10 10 11 11 10
4 1 2 5 3 5 3 2 4 4 4 5 9 6 9 5 7 9 8 7 9 11 9 6 11 11 10 10 10 9 8 7 8 10 11 11 11 10 9 9 8 9 9 9
2 4 6 3 5 2 4 7 8 6 9 7 8 6 8 5 9 10 7 10 9 12 10 11 12 12 11 10 10 8 8 6 7 8 8 8 8 10 10 9 9 9 10 10
3 3 3 2 4 6 10 11 10 9 10 10 9 9 7 7 4 8 8 10 9 14 7 12 13 13 11 10 9 8 7 8 8 8 9 8 9 9 9 10 10 9 8 9
1 3 7 6 9 12 13 14 12 11 9 9 8 10 7 7 6 9 9 13 13 7 12 13 13 11 11 10 9 9 9 8 9 9 9 9 10 9 9 9 8 7 7 7
6 9 12 11 12 12 12 11 11 12 11 10 9 10 9 9 10 10 14 12 10 13 15 13 12 12 11 10 9 9 10 10 10 10 10 10 10 9 9 9 9 9 8 8
10 9 13 13 13 12 13 12 12 11 10 8 9 8 7 10 11 10 11 13 14 12 13 12 12 12 11 10 9 10 11 11 10 9 10 9 8 8 8 8 8 9 10 10
11 12 13 13 13 13 13 13 13 11 11 8 6 10 11 12 11 12 13 13 14 12 11 11 10 11 10 9 9 9 8 8 9 8 8 8 9 8 8 9 10 9 10 10
12 13 12 12 13 13 13 13 13 11 11 12 11 12 13 11 12 13 11 12 11 11 11 10 10 10 10 10 9 10 8 8 7 7 7 8 8 9 10 10 10 10 9 9